Regional Weather Roundup
Issued by NWS Sterling, VA

Home | Current Version | Previous Version | Text Only | Print | Product List | Glossary On
Versions: 1 2 3 4 5 6 7 8 9 10 11 12 13 14 15 16 17 18 19 20 21 22 23 24 25 26 27 28 29 30 31 32 33 34 35 36 37 38 39 40 41 42 43 44 45 46 47 48 49 50
000
ASUS41 KLWX 211410
RWRLWX

REGIONAL WEATHER ROUNDUP
NATIONAL WEATHER SERVICE BALTIMORE MD/WASHINGTON DC
1000 AM EDT SUN SEP 21 2014

Note: "FAIR" indicates few or no clouds below 12,000 feet
with no significant weather and/or obstructions to visibility.
 TC=TEMPERATURE CELSIUS

 * =Non NWS site. Station does not report precipitation (e.g. rain,
    snow, etc.), thunder, or fog.

DCZ001-MDZ009-015-VAZ040>042-051-053>054-211500-
WASHINGTON METRO

CITY           SKY/WX    TMP DP  RH WIND       PRES   REMARKS
WASHINGTON NAT CLOUDY    71  61  70 NE3       29.88S
DULLES         MOSUNNY   66  62  87 CALM      29.88S
ANDREWS AFB    PTSUNNY   66  64  93 NE3       29.88F
QUANTICO       PTSUNNY   68  64  87 CALM      29.89S
COLLEGE PARK*  PTSUNNY   68  64  88 CALM      29.86F
LEESBURG*      SUNNY     64  63  94 CALM      29.89S
MANASSAS*      SUNNY     64  63  94 CALM      29.88S
GAITHERSBURG*  SUNNY     66  63  88 CALM      29.91F

$$

MDZ006>007-011-014-211500-
BALTIMORE METRO

CITY           SKY/WX    TMP DP  RH WIND       PRES   REMARKS
BWI AIRPORT    CLOUDY    67  63  87 E6        29.87F FOG
MD SCIENCE CTR   N/A     67  62  84 MISG      29.88F
MARTIN STATE   CLOUDY    70  66  88 CALM      29.89F
ANNAPOLIS      CLOUDY    68  63  84 NE6       29.86F
FORT MEADE*    PTSUNNY   64  63  94 CALM      29.90F

$$

MDZ012-015-019>023-211500-
MARYLAND EASTERN SHORE

CITY           SKY/WX    TMP DP  RH WIND       PRES   REMARKS
OCEAN CITY     CLOUDY   N/A N/A N/A N6        29.82F
SALISBURY      CLOUDY    74  69  85 N8        29.83F HAZE
BAY BRIDGE AP*   N/A     68  63  83 CALM      29.86F
CAMBRIDGE*     CLOUDY    70  64  83 N5        29.84F
EASTON*        FOG       68  68 100 CALM      29.89F VSB 1/2

$$

MDZ017>025-211500-
SOUTHERN MARYLAND

CITY           SKY/WX    TMP DP  RH WIND       PRES   REMARKS
PATUXENT RIVER CLOUDY    70  65  84 N8        29.85F
ST INIGOES     CLOUDY    70  64  81 N6        29.85F
LEONARDTOWN*   CLOUDY    68  63  83 CALM      29.88S

$$

MDZ003>005-211500-
NORTH CENTRAL MARYLAND

CITY           SKY/WX    TMP DP  RH WIND       PRES   REMARKS
FREDERICK*     SUNNY     66  63  88 CALM      29.91F
HAGERSTOWN APT SUNNY     67  58  72 S6        29.87F
WESTMINSTER*   SUNNY     66  63  88 CALM      29.89S

$$

MDZ501>502-211500-
WESTERN MARYLAND

CITY           SKY/WX    TMP DP  RH WIND       PRES   REMARKS
OAKLAND*       SUNNY     64  64 100 SW12G21   29.91F
CUMBERLAND*    SUNNY     72  59  64 SE5       29.88F

$$

VAZ025>031-211500-
SHENANDOAH VALLEY

CITY           SKY/WX    TMP DP  RH WIND       PRES   REMARKS
WINCHESTER*    SUNNY     70  57  64 SE3       29.87F
STAUNTON*      SUNNY     68  56  66 S6        29.93F

$$

WVZ021-048>050-054>055-211500-
EASTERN WEST VIRGINIA PANHANDLE

CITY           SKY/WX    TMP DP  RH WIND       PRES   REMARKS
MARTINSBURG    SUNNY     68  56  65 S3        29.88F
PETERSBURG*    SUNNY     72  59  64 CALM      29.87F

$$

VAZ036>039-050-211500-
CENTRAL FOOTHILLS

CITY           SKY/WX    TMP DP  RH WIND       PRES   REMARKS
CHARLOTTESVILL SUNNY     67  59  75 VRB3      29.88F
ORANGE*        SUNNY     70  61  73 CALM      29.89S

$$

VAZ055>057-211500-
NORTH AND CENTRAL PIEDMONT

CITY           SKY/WX    TMP DP  RH WIND       PRES   REMARKS
FREDERICKSBRG* MOSUNNY   68  65  89 CALM      29.88S
STAFFORD*      MOSUNNY   66  66 100 CALM      29.92F

$$

NCZ024-NYZ072-PAZ021-071-VAZ022-071-211500-
OTHER REGIONAL OBSERVATIONS

CITY           SKY/WX    TMP DP  RH WIND       PRES   REMARKS
NEW YORK CITY  CLOUDY    71  67  87 CALM      29.90S FOG
PHILADELPHIA   CLOUDY    69  64  84 N7        29.87F
PITTSBURGH     LGT RAIN  69  64  84 SW15      29.78F
ROANOKE        MOSUNNY   66  58  75 W9        29.95F
RICHMOND       PTSUNNY   71  63  75 N7        29.87F
RALEIGH        PTSUNNY   73  62  68 VRB6      29.91F

$$

ANZ530>537-211500-
MARINE OBSERVATIONS

STATION/POSITION TIME  TEMP    WIND        PRES
                       AIR SEA DIR/SP/G
                 (UTC) (F)     (DEG/KT/KT) (MB)
THOMAS PT LIGHT  1400   67 74   20/  6/  7 1012.0F
BALT KEY BRIDGE  1400   67      10/  5/  6 1011.6F
COVE POINT       1400   68      30/  9/ 10 1011.1R
LEWISETTA        1400   70 74  360/  6/  8 1010.4F
SOLOMONS ISLAND  1400      76                N/A
PINEY POINT      1400          340/ 10/ 11   N/A

$$



USA.gov is the U.S. government's official web portal to all federal, state and local government web resources and services.